Tracking 34719 objects as of 12-Jul-2026
HD Live streaming from Space Station
objects crossing your sky now

COSMOS 1304

Track COSMOS 1304 now!
10-day predictions
COSMOS 1304 is classified as:


NORAD ID: 12803
Int'l Code: 1981-087A
Perigee: 909.4 km
Apogee: 977.2 km
Inclination: 82.9 °
Period: 103.8 minutes
Semi major axis: 7314 km
RCS: 1.592 m2 (large)
Launch date: September 4, 1981
Source: Commonwealth of Independent States (former USSR) (CIS)
Launch site: PLESETSK MISSILE AND SPACE COMPLEX (PKMTR)
Your satellite tracking list
Your tracking list is empty




NASA's NSSDC Master Catalog

Two Line Element Set (TLE):
1 12803U 81087A   26192.63217109  .00000063  00000-0  39016-4 0  9999
2 12803  82.9339  25.6488 0046347 151.8822 208.4859 13.87855818646303
Source of the keplerian elements: AFSPC